SCP
1 0 0 0 0 0 0 0 0 0 0 0 0 0 0 0 0 0 0 0 0 0 0 0 0 0 0 0 0 0 0 0 0 0 0 0 0 0 0 0 0 0 0 0 0 0 0 0 0
0 0 0 0 0 0 0 0 0 0 0 0 0 0 0 0 0 0 0 0 0 0 0 0 0 0 0 0 0 0 0 0 0 0 0 0 0 0 0 0 0 0 0 0 0 0 0 0 0
0 0 0 0 0 0 0 0 0 0 0 0 0 0 0 0 0 0 0 0 0 0 0 0 0 0 0 0 0 0 0 0 0 0 0 0 0 0 0 0 0 0 0 0 0 0 0 0 0
0 0 0 0 0 0 0 0 0 0 0 0 0 0 0 0 0 0 0 0 0 0 0 0 0 0 0 0 0 0 0 0 0 0 0 0 0 0 0 0 0 0 0 0 0 0 0 0 0
0 0 0 0 0 0 0 0 0 0 0 0 0 0 0 0 0 0 0 0 0 0 0 0 0 0 0 0 0 0 0 0 0 0 0 0 0 0 0 0 0 0 0 0 0 0 0 0 0
0 0 0 0 0 0 0 0 0 0 0 0 0 0 0 0 0 0 0 0 0 0 0 0 0 0 0 0 0 0 0 0 0 0 0 0 0 0 0 0 0 0 0 0 0 0 0 0 0
0 0 0 0 0 0 0 0 0 0 0 0 0 0 0 0 0 0 0 0 0 0 0 0 0 0 0 0 0 0 0 0 0 0 0 0 0 0 0 0 0 0 0 0 0 0 0 0 0
0 0 0 0 0 0 0 0 0 0 0 0 0 0 0 0 0 0 0 0 0 0 0 0 0 0 0 0 0 0 0 0 0 0 0 0 0 0 0 0 0 0 0 0 0 0 0 0 0
0 0 0 0 0 0 0 0 0 0 0 0 0 0 0 0 0 0 0 0 0 0 0 0 0 0 0 0 0 0 0 0 0 0 0 0 0 0 0 0 0 0 0 0 0 0 0 0 0
0 0 0 0 0 0 0 0 0 0 0 0 0 0 0 0 0 0 0 0 0 0 0 0 0 0 0 0 0 0 0 0 0 0 0 0 0 0 0 0 0 0 0 0 0 0 0 0 0
0 0 0 0 0 0 0 0 0 0 0 0 0 0 0 0 0 0 0 0 0 0 0 0 0 0 0 0 0 0 0 0 0 0 0 0 0 0 0 0 0 0 0 0 0 0 0 0 0
0 0 0 0 0 0 0 0 0 0 0 0 0 0 0 0 0 0 0 0 0 0 0 0 0 0 0 0 0 0 0 0 0 0 0 0 0 0 0 0 0 0 0 0 0 0 0 0 0
0 0 0 0 0 0 0 0 0 0 0 0 0 0 0 0 0 0 0 0 0 0 0 0 0 0 0 0 0 0 0 0 0 0 0 0 0 0 0 0 0 0 0 0 0 0 0 0 0
0 0 0 0 0 0 0 0 0 0 0 0 0 0 0 0 0 0 0 0 0 0 0 0 0 0 0 0 0 0 0 0 0 0 0 0 0 0 0 0 0 0 0 0 0 0 0 0 0
0 0 0 0 0 0 0 0 0 0 0 0 0 0 0 0 0 0 0 0 0 0 0 0 0 0 0 0 0 0 0 0 0 0 0 0 0 0 0 0 0 0 0 0 0 0 0 0 0
0 0 0 0 0 0 0 0 0 0 0 0 0 0 0 0 0 0 0 0 0 0 0 0 0 0 0 0 0 0 0 0 0 0 0 0 0 0 0 0 0 0 0 0 0 0 0 0 0
0 0 0 0 0 0 0 0 0 0 0 0 0 0 0 0 0 0 0 0 0 0 0 0 0 0 0 0 0 0 0 0 0 0 0 0 0 0 0 0 0 0 0 0 0 0 0 0 0
0 0 0 0 0 0 0 0 0 0 0 0 0 0 0 0 0 0 0 0 0 0 0 0 0 0 0 0 0 0 0 0 0 0 0 0 0 0 0 0 0 0 0 0 0 0 0 0 0
0 0 0 0 0 0 0 0 0 0 0 0 0 0 0 0 0 0 0 0 0 0 0 0 0 0 0 0 0 0 0 0 0 0 0 0 0 0 0 0 0 0 0 0 0 0 0 0 0
0 0 0 0 0 0 0 0 0 0 0 0 0 0 0 0 0 0 0 0 0 0 0 0 0 0 0 0 0 0 0 0 0 0 0 0 0 0 0 0 0 0 0 0 0 0 0 0 0
0 0 0 0 0 0 0 0 0 0 0 0 0 0 0 0 0 0 0 0 0 0 0 0 0 0 0 0 0 0 0 0 0 0 0 0 0 0 0 0 0 0 0 0 0 0 0 0 0
0 0 0 0 0 0 0 0 0 0 0 0 0 0 0 0 0 0 0 0 0 0 0 0 0 0 0 0 0 0 0 0 0 0 0 0 0 0 0 0 0 0 0 0 0 0 0 0 0
0 0 0 0 0 0 0 0 0 0 0 0 0 0 0 0 0 0 0 0 0 0 0 0 0 0 0 0 0 0 0 0 0 0 0 0 0 0 0 0 0 0 0 0 0 0 0 0 0
0 0 0 0 0 0 0 0 0 0 0 0 0 0 0 0 0 0 0 0 0 0 0 0 0 0 0 0 0 0 0 0 0 0 0 0 0 0 0 0 0 0 0 0 0 0 0 0 0
0 0 0 0 0 0 0 0 0 0 0 0 0 0 0 0 0 0 0 0 0 0 0 0 0 0 0 0 0 0 0 0 0 0 0 0 0 0 0 0 0 0 0 0 0 0 0 0 0
0 0 0 0 0 0 0 0 0 0 0 0 0 0 0 0 0 0 0 0 0 0 0 0 0 0 0 0 0 0 0 0 0 0 0 0 0 0 0 0 0 0 0 0 0 0 0 0 0
0 0 0 0 0 0 0 0 0 0 0 0 0 0 0 0 0 0 0 0 0 0 0 1 1 1 1 1 0 0 0 0 0 0 0 0 0 0 0 0 0 0 0 0 0 0 0 0 0
0 0 0 0 0 0 0 0 0 0 0 0 0 0 0 0 0 0 0 0 0 0 1 1 1 1 1 1 1 0 0 0 0 0 0 0 0 0 0 0 0 0 0 0 0 0 0 0 0
0 0 0 0 0 0 0 0 0 0 0 0 0 0 0 0 0 0 0 0 0 0 1 1 1 1 1 1 1 0 0 0 0 0 0 0 0 0 0 0 0 0 0 0 0 0 0 0 0
0 0 0 0 0 0 0 0 0 0 0 0 0 0 0 0 0 0 0 0 0 0 1 1 1 1 1 1 1 1 1 1 0 0 0 0 0 0 0 0 0 0 0 0 0 0 0 0 0
Wind_Speed
8 7 4 1 4 5 6 6 8 8 7 9 11 11 10 8 5 6 3 6 7 5 4 7 10 12 13 13 13 13 13 14 14 14 14 14 13 13 13 13 13 14 15 16 16 16 16 16 15
6 5 2 3 5 5 5 6 11 11 10 10 12 12 10 8 7 8 4 7 7 6 4 7 11 12 13 13 13 13 13 14 14 14 13 13 13 13 13 12 13 14 15 15 15 15 16 15 14
5 3 2 4 3 5 6 8 12 13 10 8 7 8 7 5 6 5 6 9 7 6 5 7 11 12 12 12 12 12 13 13 13 13 13 12 13 12 12 12 13 14 14 15 15 15 15 14 14
3 2 3 5 6 5 8 9 12 13 11 10 9 8 5 5 5 8 11 10 9 6 4 6 11 11 11 11 11 11 12 12 12 12 12 12 13 12 12 13 13 13 14 14 14 14 13 13 12
3 4 5 5 6 6 9 11 12 11 7 10 11 9 6 6 10 12 11 10 9 5 3 5 10 10 10 11 11 10 11 11 12 12 11 11 12 12 13 13 13 12 12 13 13 12 12 11 10
3 4 5 5 7 7 9 12 14 16 14 12 11 9 4 6 10 10 10 9 8 7 4 5 9 10 9 10 10 10 10 10 11 11 11 10 11 12 12 12 11 11 11 12 12 11 11 9 8
4 4 5 6 8 8 9 10 12 13 12 8 8 7 4 5 7 9 9 9 7 6 5 3 4 5 8 9 9 9 10 10 10 9 9 9 10 10 10 10 10 10 11 10 10 10 9 8 7
5 5 4 5 8 8 8 8 10 12 10 10 7 7 5 5 8 9 9 8 7 5 4 4 3 3 3 4 7 8 9 9 9 9 8 8 8 8 9 8 9 10 10 9 9 8 8 7 6
4 6 4 6 8 7 10 12 8 8 11 7 6 8 9 9 9 9 8 6 5 5 3 3 3 3 2 2 4 5 6 7 7 6 7 6 3 3 4 6 8 9 8 8 7 7 6 6 5
5 6 6 6 9 10 11 12 8 9 12 10 11 10 10 9 9 8 7 6 5 5 4 3 3 3 3 3 2 1 1 2 2 2 3 2 2 2 3 5 7 7 6 6 6 5 4 3 2
5 7 7 7 10 11 11 9 7 11 9 12 14 12 10 8 7 7 6 6 5 5 5 4 4 3 3 2 2 1 1 1 2 2 2 2 2 2 2 2 2 3 3 2 2 2 1 1 1
6 6 8 8 11 11 10 9 8 8 10 13 13 12 10 9 7 7 7 6 6 5 5 4 4 4 3 3 2 2 1 1 2 2 3 3 2 2 2 1 1 1 1 1 1 1 1 1 1
6 6 7 9 11 11 13 11 11 11 14 13 13 11 10 9 7 6 7 6 6 6 5 4 5 5 4 3 2 2 2 2 2 2 3 3 3 2 2 1 1 1 1 1 1 1 1 1 1
4 7 9 11 12 11 15 11 9 11 13 13 12 10 9 9 8 7 6 6 6 5 5 4 5 4 4 3 2 2 1 2 2 2 3 3 3 3 2 2 1 1 1 1 1 1 1 1 2
5 8 7 8 10 9 13 8 9 13 13 12 11 10 9 8 9 9 8 7 7 6 5 4 4 4 4 3 2 2 1 2 2 2 2 3 3 4 3 2 1 1 1 1 1 1 2 2 2
4 5 4 3 7 7 10 7 8 12 13 10 9 9 9 8 9 9 9 8 7 6 5 4 5 4 3 2 2 1 1 2 2 2 2 3 3 3 3 2 1 1 1 1 1 1 2 2 2
3 3 4 3 5 7 7 7 9 10 12 11 9 9 9 8 7 8 9 9 8 7 6 4 4 4 3 3 2 2 1 1 2 2 2 2 3 3 3 2 1 1 1 1 1 1 1 2 1
4 4 5 6 7 8 8 9 12 12 12 11 10 9 9 9 9 9 9 9 8 7 6 5 4 4 3 2 2 2 2 1 1 1 2 2 2 3 3 2 1 1 1 1 1 1 1 2 2
6 4 4 4 6 7 9 11 13 12 10 10 9 9 9 8 8 9 9 9 8 6 6 5 5 3 3 2 2 1 1 0 0 1 2 2 2 3 3 2 1 1 1 1 1 2 2 1 1
3 3 3 1 4 5 7 7 9 11 13 13 12 11 10 8 7 8 8 8 8 7 6 6 5 4 4 2 2 2 2 1 1 0 1 2 3 2 3 3 2 2 1 1 1 2 2 1 1
3 6 7 5 2 3 6 2 5 6 6 7 10 10 11 12 12 10 9 8 8 7 7 7 6 5 4 3 2 2 2 2 2 1 0 1 2 2 2 2 2 2 2 1 1 2 3 1 0
4 7 8 8 6 3 5 4 6 8 7 9 10 10 11 11 11 10 10 9 9 8 7 6 6 5 4 4 3 3 2 1 1 1 1 0 1 1 2 2 2 2 1 1 1 1 2 2 1
6 4 5 6 5 3 1 3 5 5 9 12 12 13 13 12 13 13 12 11 10 9 7 6 6 5 4 4 4 3 2 1 1 0 1 0 0 1 1 2 2 2 1 1 1 1 1 2 2
3 6 7 6 5 1 4 5 5 8 13 13 12 14 14 14 13 12 10 9 7 7 7 7 6 5 4 4 4 4 3 2 2 1 1 0 0 0 1 1 1 1 1 1 1 1 1 1 2
5 7 5 4 3 5 3 4 9 11 12 14 15 15 14 13 13 12 11 10 9 8 7 6 7 5 5 5 4 4 4 3 3 2 2 1 0 0 1 1 1 1 1 1 1 1 0 1 1
4 10 9 6 5 4 1 4 8 7 9 9 10 12 13 12 12 13 13 12 11 10 9 8 8 6 6 5 4 3 3 3 2 2 2 2 1 1 0 1 1 1 1 1 1 1 0 1 1
4 4 9 8 3 1 3 4 6 1 5 7 7 9 11 12 13 13 12 12 11 11 10 9 9 7 6 6 5 3 3 3 2 2 2 1 1 1 1 1 1 1 1 1 2 1 0 1 0
6 7 6 6 5 1 3 3 5 5 7 8 9 11 10 11 12 12 12 12 11 10 9 9 8 8 6 6 5 5 3 3 3 2 2 2 1 1 1 1 1 1 1 1 2 1 1 1 1
1 3 6 5 6 7 3 7 7 10 10 11 11 11 11 12 13 12 11 11 10 9 9 8 8 7 6 6 5 4 4 3 3 2 2 2 2 2 2 1 2 2 2 1 2 1 1 1 1
6 6 8 5 3 5 5 8 6 7 8 9 10 10 10 10 11 11 11 10 9 9 9 9 8 8 7 7 5 5 4 4 3 3 2 2 2 2 2 2 2 2 2 1 1 1 0 0 1
Wind_Direction
166 164 159 124 54 57 74 84 91 81 66 63 69 73 71 59 82 115 161 129 120 119 114 108 102 97 94 93 91 90 95 99 102 102 102 104 104 106 110 112 116 119 121 123 123 123 122 122 122
163 158 128 59 75 81 72 87 85 90 113 102 78 74 70 65 81 108 118 127 121 120 113 113 106 102 100 98 96 94 95 97 99 100 102 103 104 106 107 113 117 122 124 125 126 125 125 124 124
167 166 91 68 90 120 113 101 102 99 96 87 82 62 61 85 98 117 135 131 113 105 109 116 110 108 106 102 99 98 98 98 100 100 101 103 106 106 106 112 116 121 124 126 127 126 127 127 126
146 83 54 78 100 120 124 120 113 103 78 73 89 72 62 85 105 123 129 126 113 106 110 120 116 114 110 107 104 103 103 103 103 102 102 101 104 106 110 115 118 120 122 124 126 127 129 129 128
89 83 68 82 94 103 113 114 108 97 85 86 91 93 82 81 108 120 127 127 123 120 122 122 123 120 116 113 111 110 111 109 110 109 107 106 107 107 110 116 117 120 123 126 128 128 128 129 129
81 79 87 100 103 98 104 111 103 101 110 105 100 101 90 105 116 127 129 127 128 135 137 130 131 129 124 121 118 118 119 119 118 116 113 112 111 113 114 119 121 122 124 124 125 130 132 133 132
117 109 124 125 115 110 119 118 113 119 120 116 120 100 115 118 128 130 131 131 131 136 135 130 136 136 134 131 128 127 130 129 128 125 121 119 118 119 119 124 126 127 128 128 129 130 134 136 137
149 112 110 116 116 117 121 110 118 121 114 123 120 118 145 155 136 128 126 129 129 132 135 131 127 123 127 132 136 133 138 141 140 137 131 127 124 124 123 129 131 131 132 133 135 137 139 140 142
120 95 132 149 135 131 120 107 100 95 108 112 100 119 141 138 124 116 114 117 130 136 142 133 131 128 125 128 135 137 142 150 149 145 140 131 111 113 118 131 140 138 136 140 145 145 145 146 151
116 130 178 167 147 138 127 121 121 105 103 103 104 113 127 125 123 120 125 131 140 143 153 145 151 153 150 145 118 112 129 126 131 123 119 108 114 121 127 129 138 139 139 140 141 146 150 147 150
128 144 145 133 136 132 125 121 109 119 122 138 136 138 137 127 124 125 127 133 136 138 137 147 153 149 140 129 135 133 120 114 111 122 121 113 112 115 110 109 122 126 135 126 130 133 137 156 161
116 145 143 134 131 129 129 125 112 120 141 145 138 138 136 134 135 136 131 127 124 122 127 126 127 124 119 124 126 131 122 120 126 132 123 116 109 104 107 106 110 113 129 133 127 126 144 155 158
116 134 134 129 124 121 116 117 113 121 133 136 134 133 142 145 140 135 131 124 116 113 114 115 115 116 115 108 108 116 122 133 126 117 116 120 117 116 116 126 116 120 127 134 133 135 132 107 110
137 121 120 118 111 113 115 112 104 134 140 139 140 144 149 147 142 135 132 125 127 123 122 115 108 114 114 108 112 118 135 133 128 131 141 138 131 128 123 119 116 117 134 145 146 143 116 90 98
87 96 99 123 117 127 108 94 127 146 143 145 149 154 152 148 144 148 151 143 144 139 133 126 123 112 115 118 127 119 126 125 129 139 141 139 141 141 137 128 130 154 152 137 112 90 87 94 98
58 85 109 172 133 142 110 135 157 152 148 152 157 157 152 153 155 157 152 145 144 141 139 140 131 122 123 128 129 109 103 114 133 138 139 142 146 139 127 132 148 164 136 121 117 100 82 77 92
41 122 162 187 170 147 119 151 169 163 158 162 163 159 157 156 156 156 155 153 151 150 149 145 131 131 133 135 120 115 110 119 136 132 135 146 146 140 133 137 150 142 126 128 145 111 127 125 116
224 178 189 188 184 151 143 161 168 170 169 170 167 162 159 164 167 163 159 158 155 154 150 146 140 142 132 119 94 73 69 74 103 128 151 155 149 144 131 124 122 118 110 105 124 129 126 140 146
196 169 185 195 168 149 159 159 169 172 172 175 171 170 168 171 171 163 162 158 154 152 151 149 146 154 134 117 114 100 87 69 78 138 146 147 139 123 123 132 130 131 138 166 156 139 127 128 121
199 159 171 171 168 145 154 159 170 177 182 181 176 174 170 167 167 168 164 159 160 163 163 158 160 160 153 146 149 152 152 158 162 119 113 136 134 137 139 140 150 154 139 128 144 144 139 163 141
222 178 178 171 123 84 112 139 180 193 185 180 181 180 175 173 174 173 168 166 164 168 171 170 170 164 163 154 124 100 68 48 49 47 68 137 149 156 155 151 154 158 154 170 186 153 147 162 196
228 204 171 157 132 180 155 179 225 191 192 193 189 181 182 181 178 176 170 169 174 176 171 166 165 163 165 153 141 142 137 138 195 186 177 188 158 148 152 155 155 158 147 158 200 154 148 146 185
215 197 152 150 136 121 130 135 257 173 198 206 195 189 185 184 181 180 177 175 175 172 168 167 162 165 166 159 156 149 147 162 173 128 121 111 321 170 165 153 145 153 155 174 175 149 155 159 172
160 65 51 58 73 84 215 155 238 204 205 200 195 188 186 184 181 178 174 166 164 164 166 168 165 170 170 166 159 157 160 165 144 139 146 174 297 288 270 156 155 165 161 181 185 179 174 179 171
103 90 47 15 23 251 234 173 231 217 203 192 189 187 187 184 176 172 168 164 165 165 168 172 172 177 176 168 166 163 166 161 162 167 171 157 84 356 308 93 123 140 151 155 144 127 142 148 145
171 138 153 180 204 258 292 220 252 225 199 189 180 178 179 179 175 173 172 169 169 169 173 174 178 180 178 171 167 165 156 147 161 168 155 160 177 214 246 97 88 95 120 127 117 103 148 115 147
158 166 163 138 155 132 273 282 318 120 157 170 168 163 174 179 172 171 169 168 169 171 175 174 175 173 172 169 163 162 159 148 151 152 152 167 182 173 147 111 101 102 113 113 112 93 57 64 87
161 154 100 112 136 211 284 254 223 203 189 173 171 177 178 175 170 170 170 171 173 174 173 170 168 169 168 170 169 164 170 164 161 153 161 172 177 164 133 107 112 114 106 102 101 85 54 75 357
157 112 109 118 147 151 216 263 226 198 192 176 177 177 174 168 171 172 172 173 170 165 167 163 163 161 165 170 169 159 163 169 162 158 174 174 168 153 138 127 106 101 102 101 102 92 63 60 355
167 167 142 145 204 159 166 260 265 182 183 168 164 159 158 160 163 166 170 166 163 165 167 166 169 169 170 168 165 163 163 161 160 162 166 156 142 135 124 109 100 104 99 97 110 122 26 67 3